Location: Unspecified
(64.9000°N, 0.0000°E)
Time: 01:19:57
(UTC+00:00)

Transit 2A Rocket - Pass Details

Date: 18 June 2019
Orbit: 588 x 915 km, 66.7° (Epoch: 22 July)

Event Time Altitude Azimuth Distance (km) Brightness Sun altitude
Rises 11:39:56 0° 200° (SSW) 3,542 9.0 48.4°
Reaches altitude 10° 11:42:39 10° 193° (SSW) 2,591 8.6 48.4°
Maximum altitude 11:48:08 37° 128° (SE) 1,340 7.3 48.5°
Drops below altitude 10° 11:53:23 10° 63° (ENE) 2,475 7.6 48.5°
Sets 11:55:55 0° 55° (NE) 3,365 8.1 48.5°
